| time (UTC) | temp C | wind direction | speed KPH | gust KPH | rain 1hr cm | rain 24hr cm | rain mn cm | humidity % | barometer mb |
| 20260503035038 | 7 | 0 | 0.0 | 4.8 | 0.00 | 0.00 | 0.00 | 78 | 1018.4 |
| 20260503034548 | 8 | 38 | 1.6 | 4.8 | 0.00 | 0.00 | 0.00 | 78 | 1018.3 |
| 20260503034035 | 7 | 52 | 1.6 | 4.8 | 0.00 | 0.00 | 0.00 | 78 | 1018.3 |
| 20260503033534 | 7 | 68 | 1.6 | 3.2 | 0.00 | 0.00 | 0.00 | 78 | 1018.3 |
| 20260503033047 | 8 | 0 | 0.0 | 0.0 | 0.00 | 0.00 | 0.00 | 77 | 1018.3 |
| 20260503032534 | 8 | 0 | 0.0 | 0.0 | 0.00 | 0.00 | 0.00 | 77 | 1018.3 |
| 20260503032035 | 8 | 0 | 0.0 | 0.0 | 0.00 | 0.00 | 0.00 | 77 | 1018.3 |
| 20260503031547 | 8 | 0 | 0.0 | 0.0 | 0.00 | 0.00 | 0.00 | 77 | 1018.3 |
| 20260503031036 | 8 | 0 | 0.0 | 0.0 | 0.00 | 0.00 | 0.00 | 77 | 1018.2 |
| 20260503030536 | 8 | 0 | 0.0 | 0.0 | 0.00 | 0.00 | 0.00 | 77 | 1018.2 |
| 20260503030049 | 8 | 0 | 0.0 | 0.0 | 0.00 | 0.00 | 0.00 | 77 | 1018.2 |
| 20260503025536 | 8 | 0 | 0.0 | 1.6 | 0.00 | 0.00 | 0.00 | 76 | 1018.2 |
| 20260503025035 | 8 | 0 | 0.0 | 1.6 | 0.00 | 0.00 | 0.00 | 77 | 1018.2 |
| 20260503024550 | 8 | 0 | 0.0 | 0.0 | 0.00 | 0.00 | 0.00 | 78 | 1018.1 |
| 20260503024036 | 8 | 0 | 0.0 | 4.8 | 0.00 | 0.00 | 0.00 | 77 | 1018.2 |
| 20260503023535 | 8 | 0 | 0.0 | 4.8 | 0.00 | 0.00 | 0.00 | 76 | 1018.2 |
| 20260503023054 | 8 | 100 | 0.0 | 6.4 | 0.00 | 0.00 | 0.00 | 76 | 1018.2 |
| 20260503022534 | 8 | 100 | 0.0 | 6.4 | 0.00 | 0.00 | 0.00 | 75 | 1018.2 |
| 20260503022035 | 8 | 100 | 0.0 | 12.9 | 0.00 | 0.00 | 0.00 | 75 | 1018.1 |
| 20260503021553 | 8 | 160 | 1.6 | 12.9 | 0.00 | 0.00 | 0.00 | 76 | 1018.1 |
| 20260503021036 | 8 | 66 | 0.0 | 4.8 | 0.00 | 0.00 | 0.00 | 76 | 1018.1 |
| 20260503020535 | 8 | 315 | 3.2 | 4.8 | 0.00 | 0.00 | 0.00 | 76 | 1017.9 |
| 20260503020048 | 8 | 313 | 1.6 | 4.8 | 0.00 | 0.00 | 0.00 | 76 | 1017.8 |
| 20260503015537 | 8 | 0 | 0.0 | 0.0 | 0.00 | 0.00 | 0.00 | 75 | 1017.9 |
| 20260503015034 | 8 | 0 | 0.0 | 0.0 | 0.00 | 0.00 | 0.00 | 75 | 1017.8 |
| 20260503014558 | 8 | 0 | 0.0 | 0.0 | 0.00 | 0.00 | 0.00 | 75 | 1017.8 |
| 20260503014035 | 8 | 0 | 0.0 | 0.0 | 0.00 | 0.00 | 0.00 | 75 | 1017.9 |
| 20260503013536 | 8 | 0 | 0.0 | 0.0 | 0.00 | 0.00 | 0.00 | 75 | 1017.9 |
| 20260503013051 | 8 | 0 | 0.0 | 0.0 | 0.00 | 0.00 | 0.00 | 75 | 1017.9 |
| 20260503012536 | 8 | 0 | 0.0 | 0.0 | 0.00 | 0.00 | 0.00 | 74 | 1017.9 |
| 20260503012035 | 8 | 0 | 0.0 | 0.0 | 0.00 | 0.00 | 0.00 | 74 | 1018.0 |
| 20260503011552 | 8 | 0 | 0.0 | 0.0 | 0.00 | 0.00 | 0.00 | 74 | 1017.9 |
| 20260503011035 | 8 | 0 | 0.0 | 0.0 | 0.00 | 0.00 | 0.00 | 74 | 1017.9 |
| 20260503010538 | 9 | 0 | 0.0 | 0.0 | 0.00 | 0.00 | 0.00 | 74 | 1018.0 |
| 20260503010052 | 9 | 0 | 0.0 | 0.0 | 0.00 | 0.00 | 0.00 | 74 | 1018.0 |
| 20260503005535 | 9 | 0 | 0.0 | 0.0 | 0.00 | 0.00 | 0.00 | 74 | 1017.9 |
| 20260503005036 | 9 | 0 | 0.0 | 0.0 | 0.00 | 0.00 | 0.00 | 73 | 1018.0 |
| 20260503004551 | 9 | 0 | 0.0 | 0.0 | 0.00 | 0.00 | 0.00 | 73 | 1018.0 |
| 20260503004036 | 9 | 0 | 0.0 | 0.0 | 0.00 | 0.00 | 0.00 | 73 | 1017.9 |
| 20260503003534 | 9 | 0 | 0.0 | 0.0 | 0.00 | 0.00 | 0.00 | 73 | 1017.9 |
| 20260503003047 | 9 | 0 | 0.0 | 0.0 | 0.00 | 0.00 | 0.00 | 73 | 1018.0 |
| 20260503002534 | 10 | 0 | 0.0 | 0.0 | 0.00 | 0.00 | 0.00 | 72 | 1018.1 |
| 20260503002034 | 10 | 0 | 0.0 | 0.0 | 0.00 | 0.00 | 0.00 | 72 | 1018.1 |
| 20260503001550 | 10 | 0 | 0.0 | 0.0 | 0.00 | 0.00 | 0.00 | 72 | 1018.1 |
| 20260503001037 | 10 | 0 | 0.0 | 0.0 | 0.00 | 0.00 | 0.00 | 72 | 1018.2 |
| 20260503000534 | 10 | 0 | 0.0 | 3.2 | 0.00 | 0.00 | 0.00 | 72 | 1018.3 |
| 20260503000051 | 10 | 0 | 0.0 | 4.8 | 0.00 | 0.00 | 0.00 | 71 | 1018.2 |
| 20260502235535 | 10 | 321 | 1.6 | 4.8 | 0.00 | 0.00 | 0.00 | 71 | 1018.2 |
| 20260502235035 | 10 | 321 | 3.2 | 4.8 | 0.00 | 0.00 | 0.00 | 70 | 1018.3 |
| 20260502234555 | 10 | 0 | 0.0 | 0.0 | 0.00 | 0.00 | 0.00 | 70 | 1018.3 |
| 20260502234035 | 10 | 0 | 0.0 | 3.2 | 0.00 | 0.00 | 0.00 | 70 | 1018.5 |
| 20260502233539 | 10 | 0 | 0.0 | 3.2 | 0.00 | 0.00 | 0.00 | 69 | 1018.4 |
| 20260502233048 | 10 | 312 | 1.6 | 3.2 | 0.00 | 0.00 | 0.00 | 69 | 1018.5 |
| 20260502232538 | 10 | 311 | 1.6 | 3.2 | 0.00 | 0.00 | 0.00 | 69 | 1018.5 |
| 20260502232035 | 11 | 309 | 1.6 | 3.2 | 0.00 | 0.00 | 0.00 | 68 | 1018.7 |
| 20260502231545 | 11 | 309 | 1.6 | 3.2 | 0.00 | 0.00 | 0.00 | 68 | 1018.7 |
| 20260502231035 | 11 | 309 | 0.0 | 3.2 | 0.00 | 0.00 | 0.00 | 67 | 1018.8 |
| 20260502230535 | 11 | 0 | 0.0 | 1.6 | 0.00 | 0.00 | 0.00 | 67 | 1018.8 |
| 20260502230048 | 11 | 0 | 0.0 | 3.2 | 0.00 | 0.00 | 0.00 | 66 | 1018.8 |
| 20260502225534 | 11 | 309 | 0.0 | 3.2 | 0.00 | 0.00 | 0.00 | 66 | 1018.8 |
| 20260502225034 | 11 | 0 | 0.0 | 1.6 | 0.00 | 0.00 | 0.00 | 66 | 1018.8 |
| 20260502224548 | 11 | 0 | 0.0 | 1.6 | 0.00 | 0.00 | 0.00 | 66 | 1018.9 |
| 20260502224037 | 11 | 0 | 0.0 | 1.6 | 0.00 | 0.00 | 0.00 | 66 | 1018.8 |
| 20260502223535 | 11 | 0 | 0.0 | 1.6 | 0.00 | 0.00 | 0.00 | 66 | 1018.8 |
| 20260502223046 | 11 | 0 | 0.0 | 1.6 | 0.00 | 0.00 | 0.00 | 66 | 1018.9 |
| 20260502222536 | 11 | 0 | 0.0 | 3.2 | 0.00 | 0.00 | 0.00 | 65 | 1018.9 |
| 20260502222035 | 11 | 0 | 0.0 | 3.2 | 0.00 | 0.00 | 0.00 | 65 | 1018.9 |
| 20260502221552 | 12 | 309 | 1.6 | 3.2 | 0.00 | 0.00 | 0.00 | 65 | 1019.0 |
| 20260502221035 | 12 | 309 | 0.0 | 3.2 | 0.00 | 0.00 | 0.00 | 64 | 1019.0 |
| 20260502220535 | 12 | 0 | 0.0 | 3.2 | 0.00 | 0.00 | 0.00 | 64 | 1019.0 |
| 20260502220052 | 12 | 309 | 1.6 | 3.2 | 0.00 | 0.00 | 0.00 | 64 | 1019.0 |
| 20260502215534 | 12 | 309 | 1.6 | 4.8 | 0.00 | 0.00 | 0.00 | 63 | 1019.1 |
| 20260502215037 | 12 | 309 | 1.6 | 4.8 | 0.00 | 0.00 | 0.00 | 63 | 1019.0 |
| 20260502214555 | 12 | 309 | 1.6 | 4.8 | 0.00 | 0.00 | 0.00 | 63 | 1019.0 |
| 20260502214037 | 12 | 306 | 1.6 | 3.2 | 0.00 | 0.00 | 0.00 | 62 | 1018.9 |
| 20260502213534 | 12 | 0 | 0.0 | 3.2 | 0.00 | 0.00 | 0.00 | 62 | 1019.0 |
| 20260502213047 | 12 | 0 | 1.6 | 3.2 | 0.00 | 0.00 | 0.00 | 62 | 1019.0 |
| 20260502212535 | 12 | 305 | 0.0 | 3.2 | 0.00 | 0.00 | 0.00 | 62 | 1019.1 |
| 20260502212036 | 12 | 305 | 1.6 | 4.8 | 0.00 | 0.00 | 0.00 | 61 | 1019.1 |
| 20260502211546 | 13 | 0 | 1.6 | 4.8 | 0.00 | 0.00 | 0.00 | 61 | 1019.1 |
| 20260502211039 | 13 | 302 | 1.6 | 4.8 | 0.00 | 0.00 | 0.00 | 60 | 1019.1 |
| 20260502210534 | 13 | 296 | 1.6 | 3.2 | 0.00 | 0.00 | 0.00 | 59 | 1019.1 |
| 20260502210106 | 13 | 302 | 1.6 | 4.8 | 0.00 | 0.00 | 0.00 | 59 | 1019.1 |
| 20260502205535 | 13 | 302 | 1.6 | 4.8 | 0.00 | 0.00 | 0.00 | 59 | 1019.2 |
| 20260502205037 | 13 | 309 | 1.6 | 6.4 | 0.00 | 0.00 | 0.00 | 58 | 1019.3 |
| 20260502204556 | 13 | 305 | 3.2 | 6.4 | 0.00 | 0.00 | 0.00 | 57 | 1019.3 |
| 20260502204035 | 13 | 302 | 1.6 | 3.2 | 0.00 | 0.00 | 0.00 | 57 | 1019.4 |
| 20260502203535 | 14 | 309 | 0.0 | 3.2 | 0.00 | 0.00 | 0.00 | 57 | 1019.4 |
| 20260502203053 | 14 | 309 | 1.6 | 3.2 | 0.00 | 0.00 | 0.00 | 56 | 1019.4 |
| 20260502202535 | 14 | 310 | 1.6 | 3.2 | 0.00 | 0.00 | 0.00 | 56 | 1019.4 |
| 20260502202035 | 14 | 0 | 0.0 | 3.2 | 0.00 | 0.00 | 0.00 | 55 | 1019.4 |
| 20260502201548 | 14 | 309 | 0.0 | 6.4 | 0.00 | 0.00 | 0.00 | 55 | 1019.4 |
| 20260502201036 | 15 | 309 | 1.6 | 6.4 | 0.00 | 0.00 | 0.00 | 54 | 1019.5 |
| 20260502200536 | 15 | 316 | 3.2 | 6.4 | 0.00 | 0.00 | 0.00 | 53 | 1019.5 |
| 20260502200051 | 15 | 302 | 1.6 | 4.8 | 0.00 | 0.00 | 0.00 | 52 | 1019.4 |
| 20260502195535 | 15 | 309 | 1.6 | 3.2 | 0.00 | 0.00 | 0.00 | 52 | 1019.4 |
| 20260502195035 | 15 | 309 | 1.6 | 4.8 | 0.00 | 0.00 | 0.00 | 51 | 1019.5 |
| 20260502194551 | 16 | 309 | 1.6 | 4.8 | 0.00 | 0.00 | 0.00 | 51 | 1019.5 |
| 20260502194035 | 16 | 317 | 1.6 | 4.8 | 0.00 | 0.00 | 0.00 | 49 | 1019.5 |
| 20260502193536 | 16 | 315 | 1.6 | 4.8 | 0.00 | 0.00 | 0.00 | 48 | 1019.6 |
| 20260502193046 | 16 | 315 | 1.6 | 4.8 | 0.00 | 0.00 | 0.00 | 48 | 1019.6 |
| 20260502192535 | 16 | 317 | 0.0 | 4.8 | 0.00 | 0.00 | 0.00 | 47 | 1019.5 |
| 20260502192034 | 16 | 0 | 1.6 | 4.8 | 0.00 | 0.00 | 0.00 | 47 | 1019.6 |
| 20260502191600 | 17 | 333 | 3.2 | 6.4 | 0.00 | 0.00 | 0.00 | 46 | 1019.6 |
| 20260502191035 | 17 | 306 | 3.2 | 6.4 | 0.00 | 0.00 | 0.00 | 45 | 1019.6 |
| 20260502190535 | 17 | 323 | 3.2 | 4.8 | 0.00 | 0.00 | 0.00 | 42 | 1019.6 |
| 20260502190052 | 18 | 101 | 1.6 | 3.2 | 0.00 | 0.00 | 0.00 | 41 | 1019.5 |
| 20260502185536 | 18 | 101 | 0.0 | 3.2 | 0.00 | 0.00 | 0.00 | 40 | 1019.4 |
| 20260502185034 | 18 | 0 | 0.0 | 0.0 | 0.00 | 0.00 | 0.00 | 39 | 1019.4 |
| 20260502184551 | 19 | 0 | 0.0 | 0.0 | 0.00 | 0.00 | 0.00 | 37 | 1019.4 |
| 20260502184035 | 19 | 0 | 0.0 | 0.0 | 0.00 | 0.00 | 0.00 | 36 | 1019.3 |
| 20260502183537 | 19 | 0 | 0.0 | 0.0 | 0.00 | 0.00 | 0.00 | 36 | 1019.2 |
| 20260502183047 | 20 | 0 | 0.0 | 1.6 | 0.00 | 0.00 | 0.00 | 36 | 1019.2 |
| 20260502182537 | 20 | 0 | 0.0 | 3.2 | 0.00 | 0.00 | 0.00 | 35 | 1019.1 |
| 20260502182035 | 20 | 0 | 0.0 | 3.2 | 0.00 | 0.00 | 0.00 | 34 | 1019.1 |
| 20260502181552 | 20 | 105 | 0.0 | 3.2 | 0.00 | 0.00 | 0.00 | 33 | 1019.0 |
| 20260502181035 | 21 | 102 | 1.6 | 6.4 | 0.00 | 0.00 | 0.00 | 33 | 1018.9 |
| 20260502180535 | 21 | 103 | 0.0 | 6.4 | 0.00 | 0.00 | 0.00 | 32 | 1018.8 |
| 20260502164034 | 24 | 112 | 1.6 | 6.4 | 0.00 | 0.00 | 0.00 | 27 | 1019.2 |
| 20260502163535 | 24 | 0 | 1.6 | 6.4 | 0.00 | 0.00 | 0.00 | 28 | 1019.2 |
| 20260502163054 | 23 | 350 | 1.6 | 12.9 | 0.00 | 0.00 | 0.00 | 28 | 1019.2 |
| 20260502162536 | 23 | 117 | 3.2 | 12.9 | 0.00 | 0.00 | 0.00 | 28 | 1019.3 |
| 20260502162037 | 23 | 61 | 3.2 | 8.0 | 0.00 | 0.00 | 0.00 | 29 | 1019.3 |
| 20260502161552 | 23 | 256 | 3.2 | 14.5 | 0.00 | 0.00 | 0.00 | 29 | 1019.4 |
| 20260502161035 | 23 | 43 | 3.2 | 14.5 | 0.00 | 0.00 | 0.00 | 29 | 1019.4 |
| 20260502160535 | 24 | 40 | 4.8 | 14.5 | 0.00 | 0.00 | 0.00 | 29 | 1019.5 |
| 20260502152035 | 25 | 98 | 0.0 | 9.7 | 0.00 | 0.00 | 0.00 | 26 | 1020.0 |
| 20260502151632 | 25 | 0 | 3.2 | 9.7 | 0.00 | 0.00 | 0.00 | 27 | 1020.0 |
| 20260502151038 | 24 | 0 | 1.6 | 12.9 | 0.00 | 0.00 | 0.00 | 27 | 1020.0 |
| 20260502150534 | 24 | 164 | 0.0 | 12.9 | 0.00 | 0.00 | 0.00 | 28 | 1020.1 |
| 20260502130537 | 23 | 34 | 1.6 | 9.7 | 0.00 | 0.00 | 0.00 | 30 | 1021.1 |
| 20260502123536 | 22 | 274 | 4.8 | 11.3 | 0.00 | 0.00 | 0.00 | 30 | 1021.5 |
| 20260502123051 | 23 | 0 | 3.2 | 11.3 | 0.00 | 0.00 | 0.00 | 30 | 1021.6 |
| 20260502122535 | 23 | 90 | 1.6 | 12.9 | 0.00 | 0.00 | 0.00 | 33 | 1021.6 |
| 20260502122034 | 22 | 350 | 3.2 | 12.9 | 0.00 | 0.00 | 0.00 | 33 | 1021.8 |
| 20260502121546 | 22 | 250 | 1.6 | 8.0 | 0.00 | 0.00 | 0.00 | 32 | 1021.8 |
| 20260502121035 | 22 | 184 | 3.2 | 12.9 | 0.00 | 0.00 | 0.00 | 31 | 1021.9 |
| 20260502120536 | 22 | 277 | 1.6 | 17.7 | 0.00 | 0.00 | 0.00 | 32 | 1022.0 |
| 20260502115538 | 22 | 73 | 4.8 | 16.1 | 0.00 | 0.00 | 0.00 | 30 | 1022.1 |
| 20260502115035 | 23 | 97 | 3.2 | 11.3 | 0.00 | 0.00 | 0.00 | 31 | 1022.3 |
| 20260502114554 | 23 | 65 | 1.6 | 8.0 | 0.00 | 0.00 | 0.00 | 28 | 1022.4 |
| 20260502114035 | 22 | 0 | 1.6 | 11.3 | 0.00 | 0.00 | 0.00 | 31 | 1022.4 |
| 20260502113535 | 22 | 345 | 1.6 | 14.5 | 0.00 | 0.00 | 0.00 | 33 | 1022.5 |
| 20260502113051 | 23 | 98 | 3.2 | 14.5 | 0.00 | 0.00 | 0.00 | 30 | 1022.5 |
| 20260502112534 | 22 | 139 | 4.8 | 16.1 | 0.00 | 0.00 | 0.00 | 30 | 1022.6 |
| 20260502112035 | 22 | 80 | 3.2 | 16.1 | 0.00 | 0.00 | 0.00 | 30 | 1022.7 |
| 20260502111548 | 22 | 46 | 3.2 | 16.1 | 0.00 | 0.00 | 0.00 | 30 | 1022.7 |
| 20260502111036 | 22 | 39 | 3.2 | 12.9 | 0.00 | 0.00 | 0.00 | 31 | 1022.7 |
| 20260502110537 | 22 | 92 | 3.2 | 14.5 | 0.00 | 0.00 | 0.00 | 33 | 1022.7 |
| 20260502110054 | 22 | 0 | 3.2 | 14.5 | 0.00 | 0.00 | 0.00 | 32 | 1022.8 |
| 20260502105534 | 22 | 114 | 3.2 | 14.5 | 0.00 | 0.00 | 0.00 | 31 | 1023.0 |
| 20260502105036 | 22 | 57 | 4.8 | 14.5 | 0.00 | 0.00 | 0.00 | 29 | 1023.0 |
| 20260502104551 | 22 | 150 | 6.4 | 14.5 | 0.00 | 0.00 | 0.00 | 28 | 1022.9 |
| 20260502104035 | 22 | 78 | 4.8 | 14.5 | 0.00 | 0.00 | 0.00 | 31 | 1023.1 |
| 20260502103535 | 21 | 202 | 4.8 | 14.5 | 0.00 | 0.00 | 0.00 | 29 | 1023.1 |
| 20260502103102 | 21 | 96 | 0.0 | 16.1 | 0.00 | 0.00 | 0.00 | 27 | 1023.2 |
| 20260502102538 | 21 | 19 | 6.4 | 17.7 | 0.00 | 0.00 | 0.00 | 27 | 1023.3 |
| 20260502102035 | 21 | 112 | 3.2 | 17.7 | 0.00 | 0.00 | 0.00 | 29 | 1023.3 |
| 20260502101559 | 21 | 161 | 3.2 | 14.5 | 0.00 | 0.00 | 0.00 | 30 | 1023.4 |
| 20260502101034 | 21 | 11 | 3.2 | 12.9 | 0.00 | 0.00 | 0.00 | 32 | 1023.5 |
| 20260502100534 | 21 | 115 | 4.8 | 12.9 | 0.00 | 0.00 | 0.00 | 33 | 1023.5 |
| 20260502100113 | 21 | 33 | 1.6 | 9.7 | 0.00 | 0.00 | 0.00 | 34 | 1023.6 |
| 20260502091036 | 20 | 360 | 1.6 | 11.3 | 0.00 | 0.00 | 0.00 | 36 | 1024.0 |
| 20260502090535 | 21 | 163 | 3.2 | 14.5 | 0.00 | 0.00 | 0.00 | 35 | 1024.0 |
| 20260502071038 | 16 | 254 | 3.2 | 9.7 | 0.00 | 0.00 | 0.00 | 49 | 1024.6 |
| 20260502070535 | 16 | 0 | 3.2 | 9.7 | 0.00 | 0.00 | 0.00 | 49 | 1024.6 |
| 20260502070051 | 16 | 0 | 3.2 | 12.9 | 0.00 | 0.00 | 0.00 | 49 | 1024.6 |
| 20260502065539 | 16 | 311 | 3.2 | 12.9 | 0.00 | 0.00 | 0.00 | 50 | 1024.6 |
| 20260502065038 | 16 | 329 | 0.0 | 6.4 | 0.00 | 0.00 | 0.00 | 51 | 1024.6 |
| 20260502064557 | 16 | 0 | 0.0 | 8.0 | 0.00 | 0.00 | 0.00 | 52 | 1024.6 |
| 20260502064038 | 15 | 340 | 1.6 | 8.0 | 0.00 | 0.00 | 0.00 | 53 | 1024.6 |
| 20260502063538 | 15 | 304 | 1.6 | 6.4 | 0.00 | 0.00 | 0.00 | 55 | 1024.7 |
| 20260502063046 | 14 | 313 | 3.2 | 6.4 | 0.00 | 0.00 | 0.00 | 56 | 1024.7 |
| 20260502062537 | 14 | 304 | 1.6 | 8.0 | 0.00 | 0.00 | 0.00 | 56 | 1024.7 |
| 20260502062034 | 13 | 313 | 3.2 | 8.0 | 0.00 | 0.00 | 0.00 | 57 | 1024.7 |
| 20260502061600 | 13 | 296 | 3.2 | 8.0 | 0.00 | 0.00 | 0.00 | 57 | 1024.6 |
| 20260502061035 | 13 | 298 | 1.6 | 6.4 | 0.00 | 0.00 | 0.00 | 58 | 1024.6 |
| 20260502060538 | 13 | 352 | 1.6 | 4.8 | 0.00 | 0.00 | 0.00 | 58 | 1024.7 |
| 20260502060050 | 13 | 0 | 0.0 | 6.4 | 0.00 | 0.00 | 0.00 | 59 | 1024.6 |
| 20260502055535 | 13 | 0 | 1.6 | 6.4 | 0.00 | 0.00 | 0.00 | 59 | 1024.5 |
| 20260502055035 | 13 | 301 | 1.6 | 6.4 | 0.00 | 0.00 | 0.00 | 59 | 1024.5 |
| 20260502054548 | 13 | 0 | 1.6 | 4.8 | 0.00 | 0.00 | 0.00 | 59 | 1024.5 |
| 20260502054034 | 13 | 0 | 0.0 | 4.8 | 0.00 | 0.00 | 0.00 | 59 | 1024.4 |
| 20260502053535 | 12 | 0 | 0.0 | 4.8 | 0.00 | 0.00 | 0.00 | 59 | 1024.5 |
| 20260502053052 | 12 | 315 | 1.6 | 4.8 | 0.00 | 0.00 | 0.00 | 60 | 1024.4 |
| 20260502052536 | 12 | 0 | 0.0 | 4.8 | 0.00 | 0.00 | 0.00 | 61 | 1024.5 |
| 20260502052036 | 12 | 0 | 0.0 | 4.8 | 0.00 | 0.00 | 0.00 | 62 | 1024.5 |
| 20260502051548 | 11 | 299 | 1.6 | 4.8 | 0.00 | 0.00 | 0.00 | 62 | 1024.5 |
| 20260502051035 | 11 | 305 | 1.6 | 4.8 | 0.00 | 0.00 | 0.00 | 63 | 1024.5 |
| 20260502050536 | 11 | 0 | 0.0 | 4.8 | 0.00 | 0.00 | 0.00 | 64 | 1024.5 |
| 20260502050051 | 11 | 281 | 1.6 | 4.8 | 0.00 | 0.00 | 0.00 | 64 | 1024.5 |
| 20260502045535 | 11 | 281 | 1.6 | 4.8 | 0.00 | 0.00 | 0.00 | 64 | 1024.5 |
| 20260502045035 | 10 | 279 | 0.0 | 1.6 | 0.00 | 0.00 | 0.00 | 65 | 1024.5 |
| 20260502044553 | 10 | 0 | 0.0 | 0.0 | 0.00 | 0.00 | 0.00 | 65 | 1024.5 |
| 20260502044035 | 10 | 0 | 0.0 | 3.2 | 0.00 | 0.00 | 0.00 | 66 | 1024.4 |
| 20260502043535 | 10 | 0 | 0.0 | 3.2 | 0.00 | 0.00 | 0.00 | 66 | 1024.4 |
| 20260502043059 | 10 | 279 | 0.0 | 3.2 | 0.00 | 0.00 | 0.00 | 67 | 1024.4 |
| 20260502042536 | 10 | 0 | 0.0 | 4.8 | 0.00 | 0.00 | 0.00 | 67 | 1024.4 |
| 20260502042035 | 10 | 279 | 1.6 | 4.8 | 0.00 | 0.00 | 0.00 | 68 | 1024.4 |
| 20260502041553 | 9 | 286 | 1.6 | 4.8 | 0.00 | 0.00 | 0.00 | 69 | 1024.4 |
| 20260502041035 | 9 | 0 | 0.0 | 0.0 | 0.00 | 0.00 | 0.00 | 69 | 1024.4 |
| 20260502040536 | 8 | 0 | 0.0 | 0.0 | 0.00 | 0.00 | 0.00 | 71 | 1024.4 |
| 20260502040054 | 8 | 0 | 0.0 | 0.0 | 0.00 | 0.00 | 0.00 | 71 | 1024.4 |
| 20260502035535 | 8 | 0 | 0.0 | 0.0 | 0.00 | 0.00 | 0.00 | 71 | 1024.3 |